Location: ??????????
(48.4699°N, 37.9573°E)
Time: 13:34:08
(UTC+00:00)

CSL-04 Debris - Pass Details

Date: 20 January 2021
Orbit: 827 x 847 km, 98.9° (Epoch: 26 February)

Event Time Altitude Azimuth Distance (km) Brightness Sun altitude
Rises 15:58:17 0° 151° (SSE) 3,362 7.1 -17.9°
Reaches altitude 10° 16:00:39 10° 148° (SSE) 2,430 6.4 -18.3°
Maximum altitude 16:05:56 60° 70° (ENE) 949 4.1 -19.1°
Drops below altitude 10° 16:11:14 10° 351° (N) 2,443 6.6 -20.0°
Sets 16:13:37 0° 348° (NNW) 3,381 7.4 -20.4°
